{"data":{"norad_id":44624,"epoch":"2026-05-25T03:43:09.902208Z","epoch_age_seconds":65616,"freshness":"FRESH","line1":"1 44624U 19067A   26145.15497572 -.00000045  00000+0  00000+0 0  9999","line2":"2 44624   0.0659 340.1149 0003132  80.1938 233.2215  1.00271513 24208","mean_motion":1.00271513,"eccentricity":0.0003132,"inclination_deg":0.0659,"raan_deg":340.1149,"arg_perigee_deg":80.1938,"mean_anomaly_deg":233.2215,"bstar":0,"rev_number":2420,"period_min":1436.1007996359,"perigee_km":35773.465194905,"apogee_km":35799.877230769,"semimajor_km":42164.808212837,"source":"CELESTRAK","updated_at":"2026-05-25T13:38:24.344149Z"}}